{"data":{"norad_id":59906,"epoch":"2026-05-25T02:10:32.068416Z","epoch_age_seconds":64237,"freshness":"FRESH","line1":"1 59906U 24100X   26145.09064894 -.00000353  00000+0 -32843-5 0  9991","line2":"2 59906  43.0046  46.7828 0001362 284.6723  75.3978 15.27583709112917","mean_motion":15.27583709,"eccentricity":0.0001362,"inclination_deg":43.0046,"raan_deg":46.7828,"arg_perigee_deg":284.6723,"mean_anomaly_deg":75.3978,"bstar":-3.2843e-6,"rev_number":11291,"period_min":94.266519832335,"perigee_km":482.10349794818,"apogee_km":483.97248201546,"semimajor_km":6861.1749899818,"source":"CELESTRAK","updated_at":"2026-05-25T13:38:19.120799Z"}}